Grand Island, NE

3:41 AM CDT on July 28, 2017 (GMT -0500)
Central Nebraska Regional

Weather History for KGRI - December, 2012

Change the Weather History Date:

Monday, December 24, 2012

  Actual Average Record
Temperature  
Mean Temperature 11 °F 25 °F  
Max Temperature 16 °F 35 °F 62 °F (1922)
Min Temperature 6 °F 15 °F -19 °F (1983)
Degree Days  
Heating Degree Days 54 40  
Month to date heating degree days 771 909  
Since 1 July heating degree days 1971 2239  
Cooling Degree Days 0 0  
Month to date cooling degree days 0 0  
Year to date cooling degree days 1507 1034  
Moisture  
Dew Point 6 °F    
Average Humidity 79    
Maximum Humidity 88    
Minimum Humidity 70    
Precipitation  
Precipitation 0.00 in 0.02 in 0.53 in (1945)
Month to date precipitation 1.56 0.51  
Year to date precipitation 11.45 26.54  
Snow  
Snow 0.00 in 0.20 in 8.60 in (1945)
Month to date snowfall 7.0 3.9  
Since 1 July snowfall 7.3 8.1  
Snow Depth -    
Sea Level Pressure  
Sea Level Pressure 30.21 in    
Wind  
Wind Speed 11 mph (North)    
Max Wind Speed 17 mph    
Max Gust Speed 20 mph    
Visibility 10 miles    
Events      
T = Trace of Precipitation, MM = Missing Value Source: NWS Daily Summary

Daily Weather History Graph

Daily Weather History Graph

Search for Another Location

Airport or City:

Trip Planner

Search our weather history database for the weather conditions in past years. The results will help you decide how hot, cold, wet, or windy it might be!

Date:

Astronomy

Dec. 24, 2012 Rise Set
Actual Time 7:56 AM CST 5:10 PM CST
Civil Twilight 7:25 AM CST 5:41 PM CST
Nautical Twilight 6:50 AM CST 6:15 PM CST
Astronomical Twilight 6:16 AM CST 6:49 PM CST
Moon 2:39 PM CST (12/24) 4:35 AM CST (12/24)
Length of Visible Light 10h 16m
Length of Day
9h 14m
Waxing Gibbous, 88% of the Moon is Illuminated
Dec 24
Waxing Gibbous
Dec 28
Full
Jan 4
Last Quarter
Jan 11
New
Jan 18
First Quarter

Hourly Weather History & Observations

Time (CST) Temp. Windchill Dew Point Humidity Pressure Visibility Wind Dir Wind Speed Gust Speed Precip Events Conditions
12:53 AM 10.9 °F -2.6 °F 5.0 °F 77% 30.14 in 10.0 mi NNW 10.4 mph - N/A   Clear
1:53 AM 9.0 °F -0.9 °F 3.9 °F 80% 30.13 in 10.0 mi NNW 5.8 mph - N/A   Clear
2:53 AM 7.0 °F -4.5 °F 3.0 °F 84% 30.15 in 10.0 mi NW 6.9 mph - N/A   Clear
3:53 AM 9.0 °F -2.2 °F 3.0 °F 77% 30.15 in 10.0 mi NW 6.9 mph - 0.04 in   Clear
4:53 AM 8.1 °F -4.3 °F 1.9 °F 76% 30.15 in 10.0 mi NNW 8.1 mph - N/A   Clear
5:53 AM 7.0 °F -4.5 °F 1.9 °F 80% 30.16 in 10.0 mi NW 6.9 mph - N/A   Clear
6:53 AM 7.0 °F -4.5 °F 1.9 °F 80% 30.19 in 10.0 mi WNW 6.9 mph - N/A   Clear
7:53 AM 8.1 °F -5.3 °F 1.9 °F 76% 30.20 in 10.0 mi NNW 9.2 mph - N/A   Clear
8:53 AM 8.1 °F -9.0 °F 1.9 °F 76% 30.20 in 10.0 mi North 15.0 mph - N/A   Clear
9:53 AM 9.0 °F -6.6 °F 3.0 °F 77% 30.23 in 10.0 mi North 12.7 mph - N/A   Clear
10:53 AM 10.9 °F -6.5 °F 3.9 °F 73% 30.23 in 10.0 mi North 17.3 mph - N/A   Clear
11:53 AM 12.0 °F -4.5 °F 5.0 °F 73% 30.21 in 10.0 mi NNE 16.1 mph - N/A   Clear
1:53 PM 15.1 °F 3.3 °F 8.1 °F 74% 30.21 in 10.0 mi NNE 9.2 mph - N/A   Clear
2:53 PM 16.0 °F 2.9 °F 9.0 °F 74% 30.20 in 10.0 mi NE 11.5 mph - N/A   Mostly Cloudy
3:53 PM 15.1 °F -0.1 °F 8.1 °F 74% 30.19 in 10.0 mi NE 15.0 mph - N/A   Overcast
4:53 PM 16.0 °F 1.7 °F 9.0 °F 74% 30.21 in 10.0 mi NE 13.8 mph - N/A   Overcast
5:53 PM 16.0 °F 4.4 °F 9.0 °F 74% 30.22 in 10.0 mi NE 9.2 mph - N/A   Overcast
6:53 PM 15.1 °F 1.1 °F 9.0 °F 77% 30.23 in 10.0 mi NE 12.7 mph - N/A   Overcast
7:53 PM 15.1 °F 1.1 °F 9.0 °F 77% 30.25 in 10.0 mi NNE 12.7 mph - N/A   Overcast
8:53 PM 15.1 °F -0.6 °F 9.0 °F 77% 30.27 in 10.0 mi NNE 16.1 mph - N/A   Overcast
9:53 PM 15.1 °F 0.5 °F 9.0 °F 77% 30.28 in 10.0 mi NNE 13.8 mph - N/A   Overcast
10:53 PM 15.1 °F -0.1 °F 9.0 °F 77% 30.31 in 10.0 mi NNE 15.0 mph - N/A   Overcast
11:53 PM 14.0 °F -1.4 °F 9.0 °F 80% 30.32 in 10.0 mi NNE 15.0 mph - N/A   Mostly Cloudy